| time (UTC) | temp C | wind direction | speed KPH | gust KPH | rain 1hr cm | rain 24hr cm | rain mn cm | humidity % | barometer mb |
| 20260904051007 | 27 | 107 | 8.0 | 25.7 | 0.00 | 0.00 | 0.00 | 76 | 1009.7 |
| 20260904050559 | 27 | 171 | 11.3 | 25.7 | 0.00 | 0.00 | 0.00 | 76 | 1009.6 |
| 20260904050036 | 27 | 172 | 11.3 | 24.1 | 0.00 | 0.00 | 0.00 | 76 | 1009.6 |
| 20260904045525 | 27 | 145 | 9.7 | 24.1 | 0.00 | 0.00 | 0.00 | 75 | 1009.6 |
| 20260904045015 | 27 | 145 | 9.7 | 24.1 | 0.00 | 0.00 | 0.00 | 74 | 1009.4 |
| 20260904044504 | 27 | 150 | 8.0 | 19.3 | 0.00 | 0.00 | 0.00 | 73 | 1009.4 |
| 20260904044056 | 27 | 165 | 8.0 | 17.7 | 0.00 | 0.00 | 0.00 | 72 | 1009.6 |
| 20260904043544 | 27 | 163 | 9.7 | 20.9 | 0.00 | 0.00 | 0.00 | 72 | 1009.5 |
| 20260904043034 | 27 | 150 | 11.3 | 24.1 | 0.00 | 0.00 | 0.00 | 71 | 1009.5 |
| 20260904042524 | 27 | 134 | 12.9 | 24.1 | 0.00 | 0.00 | 0.00 | 71 | 1009.5 |
| 20260904042015 | 27 | 121 | 11.3 | 20.9 | 0.00 | 0.00 | 0.00 | 70 | 1009.6 |
| 20260904041506 | 27 | 128 | 9.7 | 20.9 | 0.00 | 0.00 | 0.00 | 70 | 1009.6 |
| 20260904041053 | 27 | 140 | 11.3 | 20.9 | 0.00 | 0.00 | 0.00 | 71 | 1009.6 |
| 20260904040546 | 27 | 148 | 8.0 | 19.3 | 0.00 | 0.00 | 0.00 | 72 | 1009.7 |
| 20260904040020 | 27 | 130 | 8.0 | 19.3 | 0.00 | 0.00 | 0.00 | 73 | 1009.7 |
| 20260904035509 | 27 | 165 | 8.0 | 16.1 | 0.00 | 0.00 | 0.00 | 73 | 1009.7 |
| 20260904035100 | 27 | 142 | 11.3 | 17.7 | 0.00 | 0.00 | 0.00 | 74 | 1009.7 |
| 20260904034549 | 27 | 170 | 4.8 | 14.5 | 0.00 | 0.00 | 0.00 | 74 | 1009.6 |
| 20260904034039 | 27 | 149 | 6.4 | 14.5 | 0.00 | 0.00 | 0.00 | 74 | 1009.5 |
| 20260904033528 | 27 | 132 | 4.8 | 12.9 | 0.00 | 0.00 | 0.00 | 74 | 1009.5 |
| 20260904033017 | 27 | 111 | 4.8 | 17.7 | 0.00 | 0.00 | 0.00 | 74 | 1009.4 |
| 20260904032506 | 27 | 92 | 3.2 | 16.1 | 0.00 | 0.00 | 0.00 | 75 | 1009.1 |
| 20260904032100 | 27 | 97 | 3.2 | 11.3 | 0.00 | 0.00 | 0.00 | 75 | 1009.2 |
| 20260904031601 | 27 | 116 | 4.8 | 12.9 | 0.00 | 0.00 | 0.00 | 74 | 1009.1 |
| 20260904031037 | 27 | 140 | 4.8 | 12.9 | 0.00 | 0.00 | 0.00 | 74 | 1009.0 |
| 20260904030526 | 27 | 119 | 0.0 | 12.9 | 0.00 | 0.00 | 0.00 | 74 | 1008.9 |
| 20260904030002 | 27 | 146 | 1.6 | 12.9 | 0.00 | 0.00 | 0.00 | 74 | 1008.8 |
| 20260904025554 | 27 | 127 | 6.4 | 12.9 | 0.00 | 0.00 | 0.00 | 74 | 1008.8 |
| 20260904025044 | 27 | 129 | 3.2 | 12.9 | 0.00 | 0.00 | 0.00 | 73 | 1008.8 |
| 20260904024532 | 28 | 90 | 4.8 | 12.9 | 0.00 | 0.00 | 0.00 | 73 | 1008.8 |
| 20260904024022 | 28 | 120 | 3.2 | 11.3 | 0.00 | 0.00 | 0.00 | 73 | 1008.7 |
| 20260904023512 | 28 | 150 | 3.2 | 11.3 | 0.00 | 0.00 | 0.00 | 72 | 1008.7 |
| 20260904023000 | 28 | 133 | 4.8 | 11.3 | 0.00 | 0.00 | 0.00 | 72 | 1008.6 |
| 20260904022554 | 28 | 110 | 4.8 | 14.5 | 0.00 | 0.00 | 0.00 | 72 | 1008.5 |
| 20260904022041 | 28 | 115 | 4.8 | 12.9 | 0.00 | 0.00 | 0.00 | 71 | 1008.5 |
| 20260904021535 | 28 | 101 | 4.8 | 14.5 | 0.00 | 0.00 | 0.00 | 71 | 1008.4 |
| 20260904021018 | 28 | 118 | 6.4 | 16.1 | 0.00 | 0.00 | 0.00 | 71 | 1008.3 |
| 20260904020509 | 28 | 152 | 9.7 | 16.1 | 0.00 | 0.00 | 0.00 | 70 | 1008.3 |
| 20260904020047 | 28 | 114 | 4.8 | 16.1 | 0.00 | 0.00 | 0.00 | 70 | 1008.2 |
| 20260904015535 | 28 | 134 | 8.0 | 16.1 | 0.00 | 0.00 | 0.00 | 70 | 1008.0 |
| 20260904015026 | 28 | 148 | 9.7 | 19.3 | 0.00 | 0.00 | 0.00 | 69 | 1008.0 |
| 20260904014514 | 28 | 115 | 8.0 | 19.3 | 0.00 | 0.00 | 0.00 | 69 | 1008.0 |
| 20260904014004 | 28 | 93 | 8.0 | 17.7 | 0.00 | 0.00 | 0.00 | 68 | 1008.0 |
| 20260904013556 | 28 | 125 | 8.0 | 16.1 | 0.00 | 0.00 | 0.00 | 68 | 1007.9 |
| 20260904013044 | 29 | 101 | 6.4 | 16.1 | 0.00 | 0.00 | 0.00 | 68 | 1007.9 |
| 20260904012534 | 29 | 122 | 8.0 | 17.7 | 0.00 | 0.00 | 0.00 | 67 | 1007.8 |
| 20260904012025 | 29 | 88 | 9.7 | 19.3 | 0.00 | 0.00 | 0.00 | 67 | 1007.8 |
| 20260904011512 | 29 | 93 | 8.0 | 19.3 | 0.00 | 0.00 | 0.00 | 67 | 1007.7 |
| 20260904011002 | 29 | 121 | 9.7 | 20.9 | 0.00 | 0.00 | 0.00 | 66 | 1007.6 |
| 20260904010553 | 30 | 69 | 8.0 | 20.9 | 0.00 | 0.00 | 0.00 | 66 | 1007.4 |
| 20260904010031 | 30 | 103 | 6.4 | 16.1 | 0.00 | 0.00 | 0.00 | 65 | 1007.4 |
| 20260904005520 | 30 | 112 | 9.7 | 19.3 | 0.00 | 0.00 | 0.00 | 65 | 1007.4 |
| 20260904005009 | 30 | 120 | 8.0 | 19.3 | 0.00 | 0.00 | 0.00 | 65 | 1007.4 |
| 20260904004601 | 30 | 107 | 6.4 | 20.9 | 0.00 | 0.00 | 0.00 | 64 | 1007.5 |
| 20260904004050 | 30 | 115 | 9.7 | 20.9 | 0.00 | 0.00 | 0.00 | 64 | 1007.4 |
| 20260904003540 | 30 | 95 | 8.0 | 24.1 | 0.00 | 0.00 | 0.00 | 63 | 1007.5 |
| 20260904003030 | 30 | 84 | 11.3 | 24.1 | 0.00 | 0.00 | 0.00 | 63 | 1007.3 |
| 20260904002520 | 31 | 74 | 14.5 | 24.1 | 0.00 | 0.00 | 0.00 | 62 | 1007.3 |
| 20260904002007 | 31 | 101 | 12.9 | 22.5 | 0.00 | 0.00 | 0.00 | 61 | 1007.2 |
| 20260904001558 | 31 | 130 | 11.3 | 22.5 | 0.00 | 0.00 | 0.00 | 60 | 1007.3 |
| 20260904001047 | 31 | 132 | 11.3 | 22.5 | 0.00 | 0.00 | 0.00 | 59 | 1007.2 |
| 20260904000538 | 32 | 109 | 11.3 | 24.1 | 0.00 | 0.00 | 0.00 | 58 | 1007.1 |
| 20260904000015 | 32 | 103 | 11.3 | 24.1 | 0.00 | 0.00 | 0.00 | 57 | 1007.0 |
| 20260903235507 | 32 | 84 | 9.7 | 19.3 | 0.00 | 0.00 | 0.00 | 56 | 1007.0 |
| 20260903235056 | 32 | 107 | 9.7 | 16.1 | 0.00 | 0.00 | 0.00 | 56 | 1006.8 |
| 20260903234545 | 32 | 121 | 8.0 | 17.7 | 0.00 | 0.00 | 0.00 | 56 | 1006.8 |
| 20260903234034 | 32 | 125 | 9.7 | 24.1 | 0.00 | 0.00 | 0.00 | 55 | 1006.8 |
| 20260903233524 | 32 | 97 | 9.7 | 24.1 | 0.00 | 0.00 | 0.00 | 55 | 1006.8 |
| 20260903233013 | 32 | 88 | 4.8 | 12.9 | 0.00 | 0.00 | 0.00 | 55 | 1006.7 |
| 20260903232503 | 32 | 119 | 4.8 | 11.3 | 0.00 | 0.00 | 0.00 | 55 | 1006.7 |
| 20260903232055 | 32 | 123 | 3.2 | 17.7 | 0.00 | 0.00 | 0.00 | 55 | 1006.7 |
| 20260903231547 | 32 | 99 | 6.4 | 17.7 | 0.00 | 0.00 | 0.00 | 55 | 1006.7 |
| 20260903231033 | 32 | 106 | 8.0 | 17.7 | 0.00 | 0.00 | 0.00 | 55 | 1006.6 |
| 20260903230523 | 32 | 111 | 8.0 | 17.7 | 0.00 | 0.00 | 0.00 | 55 | 1006.6 |
| 20260903230105 | 32 | 101 | 8.0 | 22.5 | 0.00 | 0.00 | 0.00 | 55 | 1006.5 |
| 20260903225552 | 32 | 119 | 11.3 | 22.5 | 0.00 | 0.00 | 0.00 | 55 | 1006.5 |
| 20260903225042 | 32 | 119 | 9.7 | 24.1 | 0.00 | 0.00 | 0.00 | 56 | 1006.5 |
| 20260903224535 | 32 | 121 | 12.9 | 25.7 | 0.00 | 0.00 | 0.00 | 57 | 1006.6 |
| 20260903224024 | 32 | 125 | 12.9 | 25.7 | 0.00 | 0.00 | 0.00 | 54 | 1006.5 |
| 20260903223511 | 33 | 117 | 11.3 | 24.1 | 0.00 | 0.00 | 0.00 | 52 | 1006.6 |
| 20260903223102 | 33 | 88 | 12.9 | 38.6 | 0.00 | 0.00 | 0.00 | 50 | 1006.5 |
| 20260903222549 | 35 | 94 | 20.9 | 38.6 | 0.00 | 0.00 | 0.00 | 48 | 1006.5 |
| 20260903222040 | 36 | 50 | 12.9 | 30.6 | 0.00 | 0.00 | 0.00 | 41 | 1006.3 |
| 20260903221543 | 36 | 76 | 11.3 | 19.3 | 0.00 | 0.00 | 0.00 | 41 | 1006.1 |
| 20260903221020 | 37 | 122 | 6.4 | 19.3 | 0.00 | 0.00 | 0.00 | 41 | 1006.1 |
| 20260903220508 | 37 | 170 | 6.4 | 19.3 | 0.00 | 0.00 | 0.00 | 41 | 1006.1 |
| 20260903220047 | 37 | 129 | 8.0 | 17.7 | 0.00 | 0.00 | 0.00 | 40 | 1006.1 |
| 20260903215536 | 37 | 110 | 9.7 | 19.3 | 0.00 | 0.00 | 0.00 | 41 | 1006.1 |
| 20260903215027 | 37 | 133 | 9.7 | 14.5 | 0.00 | 0.00 | 0.00 | 40 | 1006.1 |
| 20260903214512 | 37 | 130 | 3.2 | 16.1 | 0.00 | 0.00 | 0.00 | 39 | 1006.1 |
| 20260903214003 | 37 | 72 | 6.4 | 16.1 | 0.00 | 0.00 | 0.00 | 39 | 1006.2 |
| 20260903213554 | 38 | 52 | 8.0 | 16.1 | 0.00 | 0.00 | 0.00 | 39 | 1006.2 |
| 20260903213043 | 38 | 115 | 4.8 | 17.7 | 0.00 | 0.00 | 0.00 | 39 | 1006.3 |
| 20260903212532 | 38 | 81 | 8.0 | 17.7 | 0.00 | 0.00 | 0.00 | 40 | 1006.4 |
| 20260903212022 | 37 | 131 | 8.0 | 20.9 | 0.00 | 0.00 | 0.00 | 40 | 1006.4 |
| 20260903211510 | 37 | 67 | 9.7 | 20.9 | 0.00 | 0.00 | 0.00 | 40 | 1006.4 |
| 20260903211102 | 37 | 75 | 9.7 | 20.9 | 0.00 | 0.00 | 0.00 | 41 | 1006.5 |
| 20260903210555 | 37 | 121 | 9.7 | 20.9 | 0.00 | 0.00 | 0.00 | 41 | 1006.5 |
| 20260903210029 | 38 | 126 | 8.0 | 19.3 | 0.00 | 0.00 | 0.00 | 41 | 1006.6 |
| 20260903205521 | 38 | 120 | 0.0 | 16.1 | 0.00 | 0.00 | 0.00 | 40 | 1006.7 |
| 20260903205007 | 38 | 128 | 8.0 | 16.1 | 0.00 | 0.00 | 0.00 | 39 | 1006.8 |
| 20260903204602 | 39 | 134 | 8.0 | 14.5 | 0.00 | 0.00 | 0.00 | 38 | 1006.8 |
| 20260903204048 | 38 | 202 | 0.0 | 12.9 | 0.00 | 0.00 | 0.00 | 38 | 1006.9 |
| 20260903203537 | 38 | 171 | 6.4 | 14.5 | 0.00 | 0.00 | 0.00 | 39 | 1007.0 |
| 20260903203039 | 38 | 201 | 8.0 | 16.1 | 0.00 | 0.00 | 0.00 | 39 | 1007.1 |
| 20260903202515 | 38 | 204 | 8.0 | 14.5 | 0.00 | 0.00 | 0.00 | 39 | 1007.1 |
| 20260903202004 | 37 | 139 | 3.2 | 19.3 | 0.00 | 0.00 | 0.00 | 40 | 1007.3 |
| 20260903201556 | 37 | 163 | 11.3 | 24.1 | 0.00 | 0.00 | 0.00 | 41 | 1007.2 |
| 20260903201045 | 37 | 67 | 8.0 | 24.1 | 0.00 | 0.00 | 0.00 | 40 | 1007.3 |
| 20260903200538 | 37 | 355 | 3.2 | 11.3 | 0.00 | 0.00 | 0.00 | 40 | 1007.4 |
| 20260903200020 | 37 | 73 | 1.6 | 16.1 | 0.00 | 0.00 | 0.00 | 40 | 1007.5 |
| 20260903195502 | 37 | 153 | 6.4 | 16.1 | 0.00 | 0.00 | 0.00 | 41 | 1007.5 |
| 20260903195052 | 37 | 151 | 9.7 | 17.7 | 0.00 | 0.00 | 0.00 | 41 | 1007.5 |
| 20260903194544 | 37 | 204 | 8.0 | 17.7 | 0.00 | 0.00 | 0.00 | 42 | 1007.6 |
| 20260903194034 | 37 | 175 | 6.4 | 14.5 | 0.00 | 0.00 | 0.00 | 42 | 1007.6 |
| 20260903193520 | 37 | 223 | 9.7 | 17.7 | 0.00 | 0.00 | 0.00 | 42 | 1007.7 |
| 20260903193009 | 37 | 137 | 8.0 | 17.7 | 0.00 | 0.00 | 0.00 | 43 | 1007.8 |
| 20260903192601 | 36 | 115 | 3.2 | 16.1 | 0.00 | 0.00 | 0.00 | 44 | 1007.8 |
| 20260903192049 | 36 | 163 | 9.7 | 19.3 | 0.00 | 0.00 | 0.00 | 45 | 1007.9 |
| 20260903191539 | 36 | 118 | 8.0 | 19.3 | 0.00 | 0.00 | 0.00 | 44 | 1008.1 |
| 20260903191028 | 35 | 149 | 9.7 | 20.9 | 0.00 | 0.00 | 0.00 | 46 | 1008.2 |
| 20260903190517 | 35 | 155 | 3.2 | 16.1 | 0.00 | 0.00 | 0.00 | 47 | 1008.3 |
| 20260903190056 | 35 | 172 | 8.0 | 16.1 | 0.00 | 0.00 | 0.00 | 46 | 1008.4 |
| 20260903185546 | 35 | 202 | 6.4 | 12.9 | 0.00 | 0.00 | 0.00 | 46 | 1008.5 |
| 20260903185036 | 35 | 230 | 8.0 | 14.5 | 0.00 | 0.00 | 0.00 | 46 | 1008.6 |
| 20260903184525 | 35 | 217 | 8.0 | 16.1 | 0.00 | 0.00 | 0.00 | 45 | 1008.7 |
| 20260903184012 | 35 | 195 | 11.3 | 17.7 | 0.00 | 0.00 | 0.00 | 45 | 1008.7 |
| 20260903183500 | 35 | 190 | 9.7 | 19.3 | 0.00 | 0.00 | 0.00 | 45 | 1008.8 |
| 20260903183052 | 36 | 195 | 6.4 | 19.3 | 0.00 | 0.00 | 0.00 | 45 | 1008.8 |
| 20260903182542 | 36 | 204 | 12.9 | 20.9 | 0.00 | 0.00 | 0.00 | 45 | 1008.9 |
| 20260903182032 | 36 | 216 | 11.3 | 17.7 | 0.00 | 0.00 | 0.00 | 46 | 1009.0 |
| 20260903181520 | 36 | 239 | 9.7 | 17.7 | 0.00 | 0.00 | 0.00 | 47 | 1009.2 |
| 20260903181009 | 36 | 152 | 11.3 | 19.3 | 0.00 | 0.00 | 0.00 | 47 | 1009.1 |
| 20260903180602 | 35 | 196 | 8.0 | 19.3 | 0.00 | 0.00 | 0.00 | 48 | 1009.3 |
| 20260903180058 | 35 | 196 | 8.0 | 20.9 | 0.00 | 0.00 | 0.00 | 47 | 1009.3 |
| 20260903175527 | 35 | 185 | 14.5 | 24.1 | 0.00 | 0.00 | 0.00 | 47 | 1009.4 |
| 20260903175017 | 35 | 221 | 9.7 | 24.1 | 0.00 | 0.00 | 0.00 | 48 | 1009.4 |
| 20260903174505 | 35 | 152 | 11.3 | 19.3 | 0.00 | 0.00 | 0.00 | 48 | 1009.4 |
| 20260903174057 | 35 | 144 | 11.3 | 19.3 | 0.00 | 0.00 | 0.00 | 49 | 1009.5 |
| 20260903173546 | 35 | 195 | 8.0 | 17.7 | 0.00 | 0.00 | 0.00 | 50 | 1009.7 |
| 20260903173035 | 34 | 185 | 8.0 | 20.9 | 0.00 | 0.00 | 0.00 | 51 | 1009.7 |
| 20260903172527 | 34 | 202 | 9.7 | 20.9 | 0.00 | 0.00 | 0.00 | 52 | 1009.7 |
| 20260903172014 | 34 | 188 | 9.7 | 25.7 | 0.00 | 0.00 | 0.00 | 53 | 1009.8 |
| 20260903171503 | 34 | 167 | 14.5 | 27.4 | 0.00 | 0.00 | 0.00 | 54 | 1009.9 |
| 20260903171054 | 33 | 160 | 9.7 | 22.5 | 0.00 | 0.00 | 0.00 | 56 | 1009.9 |
| 20260903170543 | 33 | 232 | 9.7 | 16.1 | 0.00 | 0.00 | 0.00 | 56 | 1010.0 |
| 20260903170024 | 33 | 235 | 9.7 | 16.1 | 0.00 | 0.00 | 0.00 | 55 | 1009.9 |
| 20260903165509 | 33 | 211 | 11.3 | 16.1 | 0.00 | 0.00 | 0.00 | 55 | 1009.9 |
| 20260903165100 | 33 | 180 | 9.7 | 25.7 | 0.00 | 0.00 | 0.00 | 56 | 1010.0 |
| 20260903164559 | 33 | 185 | 9.7 | 25.7 | 0.00 | 0.00 | 0.00 | 57 | 1010.0 |
| 20260903164039 | 33 | 178 | 12.9 | 29.0 | 0.00 | 0.00 | 0.00 | 56 | 1010.1 |
| 20260903163528 | 33 | 203 | 11.3 | 29.0 | 0.00 | 0.00 | 0.00 | 59 | 1010.1 |
| 20260903163032 | 32 | 157 | 9.7 | 20.9 | 0.00 | 0.00 | 0.00 | 60 | 1010.1 |
| 20260903162507 | 32 | 190 | 9.7 | 20.9 | 0.00 | 0.00 | 0.00 | 61 | 1010.1 |
| 20260903162100 | 32 | 177 | 12.9 | 19.3 | 0.00 | 0.00 | 0.00 | 62 | 1010.2 |
| 20260903161549 | 31 | 178 | 9.7 | 17.7 | 0.00 | 0.00 | 0.00 | 64 | 1010.2 |
| 20260903161037 | 31 | 165 | 11.3 | 17.7 | 0.00 | 0.00 | 0.00 | 66 | 1010.2 |
| 20260903160526 | 30 | 201 | 9.7 | 17.7 | 0.00 | 0.00 | 0.00 | 67 | 1010.2 |
| 20260903160006 | 30 | 202 | 12.9 | 17.7 | 0.00 | 0.00 | 0.00 | 69 | 1010.3 |
| 20260903155555 | 30 | 218 | 8.0 | 17.7 | 0.00 | 0.00 | 0.00 | 71 | 1010.4 |
| 20260903155044 | 29 | 167 | 8.0 | 16.1 | 0.00 | 0.00 | 0.00 | 72 | 1010.4 |
| 20260903154533 | 29 | 201 | 9.7 | 17.7 | 0.00 | 0.00 | 0.00 | 72 | 1010.3 |
| 20260903154023 | 29 | 216 | 11.3 | 17.7 | 0.00 | 0.00 | 0.00 | 72 | 1010.3 |
| 20260903153512 | 28 | 215 | 6.4 | 16.1 | 0.00 | 0.00 | 0.00 | 74 | 1010.3 |
| 20260903153001 | 28 | 200 | 8.0 | 17.7 | 0.00 | 0.00 | 0.00 | 74 | 1010.3 |
| 20260903152552 | 28 | 175 | 11.3 | 17.7 | 0.00 | 0.00 | 0.00 | 74 | 1010.4 |
| 20260903152042 | 28 | 206 | 11.3 | 17.7 | 0.00 | 0.00 | 0.00 | 75 | 1010.4 |
| 20260903151531 | 28 | 173 | 8.0 | 24.1 | 0.00 | 0.00 | 0.00 | 75 | 1010.4 |
| 20260903151021 | 28 | 192 | 11.3 | 24.1 | 0.00 | 0.00 | 0.00 | 75 | 1010.3 |
| 20260903150510 | 28 | 222 | 6.4 | 17.7 | 0.00 | 0.00 | 0.00 | 76 | 1010.3 |
| 20260903150054 | 28 | 207 | 6.4 | 19.3 | 0.00 | 0.00 | 0.00 | 76 | 1010.3 |
| 20260903145539 | 28 | 194 | 12.9 | 19.3 | 0.00 | 0.00 | 0.00 | 76 | 1010.3 |
| 20260903145028 | 28 | 217 | 8.0 | 24.1 | 0.00 | 0.00 | 0.00 | 76 | 1010.4 |
| 20260903144517 | 28 | 229 | 12.9 | 19.3 | 0.00 | 0.00 | 0.00 | 75 | 1010.4 |
| 20260903144006 | 28 | 202 | 11.3 | 22.5 | 0.00 | 0.00 | 0.00 | 76 | 1010.4 |
| 20260903143557 | 28 | 195 | 12.9 | 22.5 | 0.00 | 0.00 | 0.00 | 76 | 1010.4 |
| 20260903143047 | 28 | 175 | 6.4 | 17.7 | 0.00 | 0.00 | 0.00 | 78 | 1010.3 |
| 20260903142536 | 27 | 190 | 12.9 | 24.1 | 0.00 | 0.00 | 0.00 | 79 | 1010.3 |
| 20260903142025 | 27 | 194 | 12.9 | 24.1 | 0.00 | 0.00 | 0.00 | 79 | 1010.3 |
| 20260903141516 | 27 | 199 | 11.3 | 25.7 | 0.00 | 0.00 | 0.00 | 80 | 1010.4 |
| 20260903141007 | 27 | 205 | 12.9 | 22.5 | 0.00 | 0.00 | 0.00 | 80 | 1010.4 |
| 20260903140555 | 27 | 195 | 12.9 | 20.9 | 0.00 | 0.00 | 0.00 | 81 | 1010.4 |
| 20260903140033 | 27 | 229 | 11.3 | 27.4 | 0.00 | 0.00 | 0.00 | 82 | 1010.4 |
| 20260903135522 | 27 | 195 | 14.5 | 27.4 | 0.00 | 0.00 | 0.00 | 82 | 1010.5 |
| 20260903135011 | 26 | 171 | 11.3 | 22.5 | 0.00 | 0.00 | 0.00 | 83 | 1010.5 |
| 20260903134602 | 26 | 202 | 11.3 | 22.5 | 0.00 | 0.00 | 0.00 | 84 | 1010.6 |
| 20260903134051 | 26 | 203 | 6.4 | 20.9 | 0.00 | 0.00 | 0.00 | 85 | 1010.6 |
| 20260903133541 | 26 | 200 | 12.9 | 20.9 | 0.00 | 0.00 | 0.00 | 85 | 1010.6 |
| 20260903133030 | 26 | 196 | 11.3 | 16.1 | 0.00 | 0.00 | 0.00 | 86 | 1010.6 |
| 20260903132521 | 26 | 168 | 11.3 | 20.9 | 0.00 | 0.00 | 0.00 | 86 | 1010.7 |
| 20260903132008 | 26 | 188 | 11.3 | 20.9 | 0.00 | 0.00 | 0.00 | 87 | 1010.7 |
| 20260903131600 | 26 | 182 | 6.4 | 14.5 | 0.00 | 0.00 | 0.00 | 87 | 1010.6 |
| 20260903131051 | 25 | 222 | 6.4 | 12.9 | 0.00 | 0.00 | 0.00 | 87 | 1010.6 |
| 20260903130541 | 25 | 184 | 6.4 | 11.3 | 0.00 | 0.00 | 0.00 | 88 | 1010.5 |
| 20260903130022 | 25 | 173 | 4.8 | 12.9 | 0.00 | 0.00 | 0.00 | 88 | 1010.4 |
| 20260903125505 | 25 | 191 | 8.0 | 14.5 | 0.00 | 0.00 | 0.00 | 88 | 1010.4 |
| 20260903125056 | 25 | 207 | 6.4 | 11.3 | 0.00 | 0.00 | 0.00 | 88 | 1010.3 |
| 20260903124546 | 25 | 201 | 4.8 | 9.7 | 0.00 | 0.00 | 0.00 | 88 | 1010.4 |
| 20260903124035 | 25 | 178 | 3.2 | 11.3 | 0.00 | 0.00 | 0.00 | 88 | 1010.3 |
| 20260903123524 | 25 | 161 | 4.8 | 11.3 | 0.00 | 0.00 | 0.00 | 88 | 1010.3 |
| 20260903123016 | 25 | 156 | 1.6 | 9.7 | 0.00 | 0.00 | 0.00 | 88 | 1010.2 |
| 20260903122503 | 25 | 190 | 3.2 | 12.9 | 0.00 | 0.00 | 0.00 | 88 | 1010.1 |
| 20260903122054 | 25 | 173 | 4.8 | 12.9 | 0.00 | 0.00 | 0.00 | 88 | 1010.0 |
| 20260903121547 | 25 | 173 | 6.4 | 11.3 | 0.00 | 0.00 | 0.00 | 88 | 1010.1 |
| 20260903121032 | 25 | 209 | 3.2 | 9.7 | 0.00 | 0.00 | 0.00 | 88 | 1010.1 |
| 20260903120523 | 25 | 212 | 3.2 | 14.5 | 0.00 | 0.00 | 0.00 | 89 | 1010.1 |
| 20260903120106 | 25 | 192 | 4.8 | 14.5 | 0.00 | 0.00 | 0.00 | 89 | 1010.1 |
| 20260903115554 | 25 | 198 | 4.8 | 14.5 | 0.00 | 0.00 | 0.00 | 89 | 1010.0 |
| 20260903115040 | 25 | 180 | 4.8 | 11.3 | 0.00 | 0.00 | 0.00 | 89 | 1010.0 |
| 20260903114534 | 25 | 184 | 4.8 | 11.3 | 0.00 | 0.00 | 0.00 | 89 | 1010.0 |
| 20260903114019 | 25 | 209 | 4.8 | 12.9 | 0.00 | 0.00 | 0.00 | 89 | 1010.0 |
| 20260903113508 | 25 | 179 | 8.0 | 12.9 | 0.00 | 0.00 | 0.00 | 89 | 1010.0 |
| 20260903113102 | 25 | 187 | 4.8 | 12.9 | 0.00 | 0.00 | 0.00 | 89 | 1010.0 |
| 20260903112549 | 25 | 180 | 4.8 | 12.9 | 0.00 | 0.00 | 0.00 | 89 | 1009.9 |
| 20260903112037 | 25 | 171 | 6.4 | 12.9 | 0.00 | 0.00 | 0.00 | 89 | 1010.0 |
| 20260903111528 | 25 | 183 | 6.4 | 12.9 | 0.00 | 0.00 | 0.00 | 90 | 1010.0 |
| 20260903111017 | 25 | 188 | 4.8 | 11.3 | 0.00 | 0.00 | 0.00 | 90 | 1009.9 |
| 20260903110506 | 25 | 136 | 3.2 | 11.3 | 0.00 | 0.00 | 0.00 | 90 | 1009.8 |
| 20260903110110 | 25 | 190 | 6.4 | 11.3 | 0.00 | 0.00 | 0.00 | 90 | 1009.8 |
| 20260903105533 | 25 | 170 | 0.0 | 12.9 | 0.00 | 0.00 | 0.00 | 90 | 1009.9 |
| 20260903105023 | 25 | 201 | 6.4 | 12.9 | 0.00 | 0.00 | 0.00 | 90 | 1009.9 |
| 20260903104513 | 25 | 169 | 3.2 | 11.3 | 0.00 | 0.00 | 0.00 | 90 | 1009.9 |
| 20260903104002 | 25 | 146 | 3.2 | 12.9 | 0.00 | 0.00 | 0.00 | 89 | 1009.8 |
| 20260903103557 | 25 | 182 | 4.8 | 12.9 | 0.00 | 0.00 | 0.00 | 89 | 1009.8 |
| 20260903103042 | 25 | 165 | 4.8 | 11.3 | 0.00 | 0.00 | 0.00 | 89 | 1009.8 |
| 20260903102532 | 25 | 167 | 1.6 | 8.0 | 0.00 | 0.00 | 0.00 | 89 | 1009.8 |
| 20260903102020 | 25 | 166 | 1.6 | 8.0 | 0.00 | 0.00 | 0.00 | 89 | 1009.7 |
| 20260903101510 | 25 | 183 | 1.6 | 6.4 | 0.00 | 0.00 | 0.00 | 89 | 1009.7 |
| 20260903101103 | 25 | 174 | 3.2 | 9.7 | 0.00 | 0.00 | 0.00 | 89 | 1009.8 |
| 20260903100550 | 25 | 163 | 1.6 | 9.7 | 0.00 | 0.00 | 0.00 | 89 | 1009.7 |
| 20260903100031 | 25 | 137 | 3.2 | 12.9 | 0.00 | 0.00 | 0.00 | 88 | 1009.7 |
| 20260903095516 | 25 | 155 | 4.8 | 12.9 | 0.00 | 0.00 | 0.00 | 88 | 1009.7 |
| 20260903095006 | 25 | 131 | 3.2 | 11.3 | 0.00 | 0.00 | 0.00 | 88 | 1009.7 |
| 20260903094601 | 25 | 178 | 4.8 | 9.7 | 0.00 | 0.00 | 0.00 | 88 | 1009.6 |
| 20260903094047 | 25 | 177 | 4.8 | 11.3 | 0.00 | 0.00 | 0.00 | 88 | 1009.7 |
| 20260903093535 | 25 | 169 | 3.2 | 11.3 | 0.00 | 0.00 | 0.00 | 87 | 1009.8 |
| 20260903093025 | 25 | 177 | 1.6 | 9.7 | 0.00 | 0.00 | 0.00 | 87 | 1009.8 |
| 20260903092514 | 25 | 169 | 4.8 | 11.3 | 0.00 | 0.00 | 0.00 | 87 | 1009.8 |
| 20260903092004 | 25 | 148 | 1.6 | 9.7 | 0.00 | 0.00 | 0.00 | 87 | 1009.8 |
| 20260903091554 | 25 | 192 | 3.2 | 9.7 | 0.00 | 0.00 | 0.00 | 86 | 1009.8 |
| 20260903091048 | 25 | 156 | 3.2 | 11.3 | 0.00 | 0.00 | 0.00 | 86 | 1009.8 |
| 20260903090533 | 25 | 161 | 4.8 | 11.3 | 0.00 | 0.00 | 0.00 | 86 | 1009.8 |
| 20260903090011 | 25 | 146 | 3.2 | 12.9 | 0.00 | 0.00 | 0.00 | 86 | 1009.9 |
| 20260903085601 | 25 | 157 | 1.6 | 9.7 | 0.00 | 0.00 | 0.00 | 86 | 1009.9 |
| 20260903085050 | 26 | 183 | 1.6 | 12.9 | 0.00 | 0.00 | 0.00 | 85 | 1009.9 |
| 20260903084540 | 26 | 186 | 3.2 | 12.9 | 0.00 | 0.00 | 0.00 | 85 | 1009.9 |
| 20260903084029 | 26 | 177 | 3.2 | 12.9 | 0.00 | 0.00 | 0.00 | 85 | 1010.0 |
| 20260903083518 | 26 | 203 | 4.8 | 12.9 | 0.00 | 0.00 | 0.00 | 85 | 1010.0 |
| 20260903083008 | 26 | 177 | 4.8 | 11.3 | 0.00 | 0.00 | 0.00 | 85 | 1010.0 |
| 20260903082559 | 26 | 177 | 3.2 | 11.3 | 0.00 | 0.00 | 0.00 | 84 | 1010.1 |
| 20260903082048 | 26 | 157 | 3.2 | 8.0 | 0.00 | 0.00 | 0.00 | 84 | 1010.1 |
| 20260903081542 | 26 | 150 | 1.6 | 6.4 | 0.00 | 0.00 | 0.00 | 84 | 1010.0 |
| 20260903081026 | 26 | 157 | 0.0 | 8.0 | 0.00 | 0.00 | 0.00 | 83 | 1010.1 |
| 20260903080517 | 26 | 157 | 0.0 | 8.0 | 0.00 | 0.00 | 0.00 | 83 | 1010.1 |
| 20260903080054 | 26 | 149 | 1.6 | 4.8 | 0.00 | 0.00 | 0.00 | 83 | 1010.1 |
| 20260903075545 | 26 | 153 | 1.6 | 11.3 | 0.00 | 0.00 | 0.00 | 83 | 1010.1 |
| 20260903075032 | 26 | 137 | 1.6 | 11.3 | 0.00 | 0.00 | 0.00 | 83 | 1010.1 |
| 20260903074522 | 26 | 134 | 1.6 | 11.3 | 0.00 | 0.00 | 0.00 | 82 | 1010.1 |
| 20260903074014 | 26 | 119 | 1.6 | 12.9 | 0.00 | 0.00 | 0.00 | 82 | 1010.2 |
| 20260903073602 | 26 | 136 | 4.8 | 12.9 | 0.00 | 0.00 | 0.00 | 82 | 1010.2 |
| 20260903073050 | 26 | 152 | 1.6 | 9.7 | 0.00 | 0.00 | 0.00 | 82 | 1010.2 |
| 20260903072542 | 26 | 159 | 1.6 | 14.5 | 0.00 | 0.00 | 0.00 | 82 | 1010.2 |
| 20260903072034 | 26 | 146 | 3.2 | 16.1 | 0.00 | 0.00 | 0.00 | 82 | 1010.2 |
| 20260903071515 | 26 | 169 | 6.4 | 16.1 | 0.00 | 0.00 | 0.00 | 81 | 1010.1 |
| 20260903071004 | 26 | 136 | 3.2 | 11.3 | 0.00 | 0.00 | 0.00 | 81 | 1010.0 |
| 20260903070558 | 26 | 147 | 4.8 | 11.3 | 0.00 | 0.00 | 0.00 | 80 | 1010.0 |
| 20260903070036 | 26 | 177 | 4.8 | 11.3 | 0.00 | 0.00 | 0.00 | 80 | 1010.1 |
| 20260903065522 | 27 | 169 | 6.4 | 12.9 | 0.00 | 0.00 | 0.00 | 80 | 1010.1 |
| 20260903065010 | 27 | 153 | 4.8 | 16.1 | 0.00 | 0.00 | 0.00 | 79 | 1010.2 |
| 20260903064605 | 27 | 147 | 8.0 | 16.1 | 0.00 | 0.00 | 0.00 | 79 | 1010.3 |
| 20260903064052 | 27 | 133 | 6.4 | 16.1 | 0.00 | 0.00 | 0.00 | 79 | 1010.3 |
| 20260903063541 | 27 | 161 | 6.4 | 16.1 | 0.00 | 0.00 | 0.00 | 78 | 1010.5 |
| 20260903063029 | 27 | 140 | 8.0 | 14.5 | 0.00 | 0.00 | 0.00 | 77 | 1010.5 |
| 20260903062518 | 27 | 129 | 4.8 | 22.5 | 0.00 | 0.00 | 0.00 | 77 | 1010.5 |
| 20260903062007 | 27 | 128 | 8.0 | 22.5 | 0.00 | 0.00 | 0.00 | 76 | 1010.4 |
| 20260903061602 | 27 | 119 | 6.4 | 17.7 | 0.00 | 0.00 | 0.00 | 75 | 1010.4 |
| 20260903061048 | 27 | 116 | 4.8 | 17.7 | 0.00 | 0.00 | 0.00 | 74 | 1010.3 |
| 20260903060537 | 27 | 149 | 8.0 | 16.1 | 0.00 | 0.00 | 0.00 | 73 | 1010.3 |
| 20260903060015 | 27 | 119 | 6.4 | 16.1 | 0.00 | 0.00 | 0.00 | 73 | 1010.5 |
| 20260903055502 | 28 | 111 | 6.4 | 16.1 | 0.00 | 0.00 | 0.00 | 72 | 1010.5 |
| 20260903055052 | 28 | 119 | 4.8 | 17.7 | 0.00 | 0.00 | 0.00 | 71 | 1010.5 |
| 20260903054547 | 28 | 134 | 4.8 | 17.7 | 0.00 | 0.00 | 0.00 | 70 | 1010.4 |
| 20260903054031 | 28 | 174 | 9.7 | 17.7 | 0.00 | 0.00 | 0.00 | 70 | 1010.4 |
| 20260903053520 | 28 | 116 | 4.8 | 14.5 | 0.00 | 0.00 | 0.00 | 69 | 1010.3 |
| 20260903053009 | 28 | 173 | 6.4 | 14.5 | 0.00 | 0.00 | 0.00 | 69 | 1010.3 |
| 20260903052600 | 28 | 165 | 4.8 | 14.5 | 0.00 | 0.00 | 0.00 | 68 | 1010.3 |
| 20260903052052 | 28 | 159 | 6.4 | 14.5 | 0.00 | 0.00 | 0.00 | 68 | 1010.1 |
| 20260903051541 | 28 | 157 | 8.0 | 14.5 | 0.00 | 0.00 | 0.00 | 68 | 1010.2 |